SCP
3 3 3 3 3 3 3 3 4 5 6 6 6 5 4 3 3 2 2 1 1 1 0 0 1 1 1 1 1 1 1 1 1 1 1 1 1 0
4 4 4 3 3 3 3 3 4 5 6 6 6 5 4 3 3 2 2 1 1 0 0 0 0 0 0 0 0 0 0 1 1 1 1 1 1 0
4 4 4 4 4 4 4 4 4 5 6 6 6 5 4 4 4 3 2 2 1 0 0 0 0 0 0 0 0 0 0 0 1 1 0 0 0 0
6 6 6 5 5 5 5 4 4 5 5 5 5 6 5 5 5 5 4 3 2 1 0 0 0 0 0 0 0 0 0 0 0 0 0 0 0 0
8 8 8 7 7 7 6 6 5 5 6 6 5 6 6 6 6 6 6 5 4 2 1 0 0 0 0 0 0 0 0 0 0 0 0 0 0 0
10 10 10 9 9 8 8 7 8 8 7 7 6 6 6 6 6 7 7 7 6 4 2 1 0 0 0 0 0 0 0 0 0 0 0 0 0 0
12 12 12 11 10 10 9 9 10 10 10 9 8 7 6 6 6 6 6 7 8 8 5 2 1 0 0 0 0 0 0 0 0 0 0 0 0 0
14 14 14 13 11 10 9 9 10 11 11 11 10 8 6 6 6 5 4 5 7 9 9 6 3 1 1 0 0 0 0 0 0 0 0 0 0 0
15 16 16 15 14 13 11 10 10 10 10 11 10 8 6 5 5 4 3 3 5 9 10 9 6 4 2 1 0 0 0 0 0 0 0 0 0 0
14 16 17 17 16 15 14 13 13 10 8 8 8 7 5 4 3 2 2 2 4 7 9 9 8 7 4 2 1 0 0 0 0 0 0 0 0 0
12 14 16 17 16 14 15 16 16 13 8 5 5 4 4 3 2 2 2 2 3 4 6 7 7 7 6 3 2 1 0 0 0 0 0 0 0 0
10 12 13 14 13 11 12 15 16 13 8 4 3 3 3 3 2 2 2 2 2 3 4 5 6 6 6 5 3 1 1 0 0 0 0 0 0 0
11 12 11 9 7 6 8 11 12 11 9 5 3 3 3 3 3 2 3 2 2 2 4 5 5 5 5 5 4 2 1 1 1 1 0 0 0 0
12 11 9 6 3 2 4 7 8 8 8 7 5 4 4 4 4 3 3 3 3 3 3 5 5 4 4 4 3 2 2 2 2 2 1 1 1 0
10 9 6 3 1 1 2 3 6 8 9 9 7 6 5 5 5 4 4 3 3 3 3 4 5 5 4 3 3 2 2 3 3 3 2 2 2 1
7 6 5 3 2 2 3 4 7 10 11 10 8 8 7 6 6 6 5 4 4 4 4 4 5 5 4 3 2 2 2 2 3 2 2 2 2 2
5 5 5 6 5 5 7 9 10 12 12 10 9 8 7 7 7 7 6 5 4 4 4 5 4 4 3 2 2 2 2 2 2 2 2 2 1 2
4 5 6 7 7 8 10 12 13 14 14 12 10 9 8 7 7 6 5 5 4 4 4 4 4 3 2 2 2 2 2 2 2 2 2 1 1 1
4 6 7 7 6 7 9 12 14 15 16 15 13 11 9 8 7 5 5 4 4 4 4 4 3 3 2 2 1 1 1 1 1 1 1 1 1 1
5 7 7 7 6 6 7 10 12 13 15 15 15 13 11 8 7 5 4 4 4 4 4 4 3 3 2 2 2 1 1 1 1 1 1 1 1 1
6 6 7 6 6 6 8 10 11 11 11 12 12 12 11 9 7 6 5 4 4 4 3 3 3 2 2 2 2 2 1 1 1 1 1 1 1 1
6 7 7 7 6 8 10 10 10 10 9 9 9 10 10 8 7 6 5 4 4 3 3 2 2 2 2 1 1 1 1 1 1 1 1 1 1 1
7 8 8 7 7 9 9 9 9 9 9 8 8 9 9 8 7 6 5 4 3 3 2 2 2 2 1 1 1 1 1 1 1 1 0 0 0 0
Wind_Speed
1 1 1 1 1 1 0 1 1 1 1 2 1 2 3 3 7 4 4 7 7 5 4 4 3 3 2 2 2 2 2 2 3 3 4 4 5 5
1 0 1 2 2 1 0 0 0 1 1 1 2 3 3 3 6 3 4 9 8 7 6 5 5 4 3 3 3 3 3 3 3 4 4 4 4 5
1 1 1 1 2 2 1 0 1 1 1 1 1 2 3 3 3 3 3 5 5 8 8 7 6 5 4 4 4 4 4 4 4 4 4 4 5 5
2 1 2 1 1 1 2 2 1 1 1 1 1 2 2 3 4 4 3 4 4 9 11 9 8 7 6 5 5 4 4 4 4 4 4 5 5 5
2 2 2 1 2 2 2 2 1 1 1 1 1 1 1 2 3 3 3 2 4 6 11 10 9 9 8 7 6 6 5 5 5 5 5 5 5 6
2 2 2 2 3 2 2 2 2 1 1 1 2 1 2 2 2 2 3 3 3 4 6 7 9 10 10 9 9 8 7 7 6 6 6 6 6 7
3 3 3 3 2 2 2 1 2 2 2 2 2 2 2 2 3 3 3 3 3 3 3 4 5 5 6 9 10 10 9 9 9 8 8 8 8 8
3 3 4 4 4 4 4 3 3 3 3 2 2 2 2 2 2 3 2 2 3 3 3 4 4 5 5 6 10 12 12 12 11 10 10 9 9 9
4 4 4 3 3 2 4 5 6 7 7 4 4 3 3 2 2 3 3 3 3 2 2 3 3 4 5 6 12 14 13 13 12 12 11 11 11 10
4 4 3 3 3 2 4 4 4 4 6 6 5 5 4 2 3 4 4 3 3 2 3 3 3 3 3 3 10 13 14 13 12 12 11 11 11 10
5 4 3 3 3 3 4 4 4 4 5 5 6 6 7 7 4 2 3 3 4 3 3 3 3 3 2 2 4 10 11 12 11 11 11 11 11 9
3 4 5 5 4 4 4 4 5 4 4 4 5 6 6 6 7 5 4 4 3 3 3 3 3 2 2 2 2 4 6 8 11 11 11 11 10 7
4 3 3 5 6 6 5 5 6 5 5 5 4 4 4 4 5 5 5 5 5 4 3 2 2 2 3 2 2 3 4 4 5 6 9 11 12 10
5 3 3 6 6 7 6 7 7 5 4 4 4 4 3 4 4 5 6 6 6 6 4 3 2 3 3 3 2 2 3 4 4 5 5 8 10 12
4 4 5 6 6 5 8 9 7 4 4 5 5 4 4 4 3 3 4 5 5 5 5 4 4 3 3 4 4 3 3 3 4 4 4 5 6 6
5 4 5 7 7 7 6 6 5 5 5 5 5 4 3 3 3 3 3 3 3 4 4 5 5 5 4 4 4 3 3 3 3 4 4 4 5 6
2 3 4 4 4 4 4 4 5 5 5 5 4 4 4 4 3 3 2 2 3 4 4 3 4 5 5 4 3 4 3 3 3 4 4 4 5 5
2 3 4 4 4 4 4 4 4 5 4 4 4 4 4 4 3 3 2 3 4 4 4 3 3 3 3 4 5 4 4 4 3 3 4 4 5 4
3 4 4 4 4 4 3 4 4 4 4 4 3 3 3 3 3 3 3 3 4 3 3 3 3 3 5 6 5 6 5 4 4 4 4 4 5 4
4 4 4 4 4 4 4 4 3 3 2 3 3 3 3 3 3 3 3 3 4 4 3 3 3 4 6 6 4 4 7 5 4 4 4 3 3 3
4 4 4 4 4 3 3 3 3 2 2 2 2 3 3 3 3 3 3 4 4 3 4 4 5 6 4 3 4 3 3 5 5 4 3 3 3 3
4 4 3 3 3 2 2 2 2 2 2 2 2 2 3 3 3 4 3 3 4 4 4 3 3 3 3 4 5 4 3 2 3 3 3 4 3 4
3 3 2 2 2 2 2 2 2 2 2 2 2 2 2 3 3 3 4 4 3 4 4 3 3 3 3 4 4 3 3 3 3 3 2 4 5 5
Wind_Direction
292 281 275 307 305 292 248 182 207 250 221 174 156 154 141 130 154 168 152 161 163 165 166 169 172 178 181 179 178 183 179 171 174 183 181 181 184 185
200 274 336 310 312 307 295 245 233 228 254 197 183 161 149 150 159 173 158 164 173 173 175 180 182 183 182 179 176 170 173 177 181 182 181 179 180 182
258 211 239 273 309 322 310 256 228 200 217 234 143 144 150 142 153 192 170 169 179 187 187 189 188 187 186 187 184 181 179 179 181 182 185 184 185 188
235 247 265 278 271 301 310 306 295 242 210 241 198 161 164 166 170 198 195 192 185 187 190 192 192 195 198 198 196 192 187 184 186 191 195 196 196 197
235 235 243 266 270 268 286 293 280 266 204 230 228 163 165 184 178 203 223 220 209 183 188 196 199 202 204 203 200 196 194 193 196 202 206 205 203 202
235 232 232 233 246 251 259 274 286 287 254 241 242 202 184 189 181 210 228 220 227 204 182 189 198 204 207 206 202 201 202 204 205 206 206 205 203 202
238 235 234 229 242 247 266 270 275 274 264 246 237 225 209 187 208 221 231 223 225 207 185 196 189 200 207 213 210 207 207 208 210 210 209 207 205 203
238 243 237 220 228 229 242 244 246 254 268 270 262 249 238 220 213 233 242 243 247 210 197 214 194 201 202 204 203 205 208 210 212 213 212 209 208 207
242 244 253 246 211 230 238 236 241 236 233 249 269 270 267 257 229 247 246 253 255 229 210 236 215 215 208 205 195 201 206 210 212 213 213 211 209 209
244 244 238 243 249 245 249 244 248 244 235 230 245 258 259 260 250 245 247 257 255 246 214 241 241 238 229 206 198 199 203 208 212 213 213 212 210 208
238 245 240 225 238 259 254 255 259 262 252 241 238 243 243 244 243 254 254 250 259 250 221 223 239 241 227 215 207 199 200 204 209 211 212 211 208 205
233 227 227 224 226 226 241 253 257 264 277 264 254 249 242 238 226 221 235 246 259 255 228 214 233 225 242 217 199 194 206 213 214 214 211 209 201 201
247 235 218 205 214 224 235 248 254 268 269 260 251 240 230 229 223 218 220 225 238 250 233 212 236 233 230 236 211 202 200 203 207 218 217 213 204 199
258 245 217 209 217 226 236 250 263 272 267 265 257 246 240 234 229 223 222 220 226 236 238 221 227 223 234 248 244 211 207 204 198 204 206 207 212 215
263 247 234 233 234 238 236 243 251 251 255 259 255 248 243 242 233 227 230 226 233 239 236 225 222 224 226 239 247 230 218 215 202 207 205 197 200 203
263 262 239 232 236 242 243 237 231 237 245 255 257 253 248 246 241 234 232 225 231 243 235 224 224 223 231 243 243 241 224 217 208 209 207 208 205 204
238 240 238 231 231 230 228 229 231 230 238 246 251 252 251 248 245 237 233 233 234 243 240 225 226 230 231 230 239 237 234 231 216 205 208 219 221 215
217 241 246 247 246 246 243 238 233 234 239 241 244 246 247 250 250 241 230 233 246 247 245 237 231 232 245 246 233 233 230 233 230 214 213 226 232 220
222 249 253 257 258 259 252 250 250 246 242 241 242 245 252 253 252 252 243 243 253 253 244 234 232 229 242 252 243 221 230 236 227 222 221 224 232 225
237 251 259 256 253 253 255 255 259 259 255 259 259 257 254 259 262 262 254 244 248 250 251 238 225 226 238 248 251 238 217 221 224 231 234 238 241 229
244 250 255 255 253 250 251 256 257 250 246 256 262 267 268 268 267 266 270 269 261 256 254 252 241 230 237 250 253 244 220 209 217 218 218 225 236 231
245 251 261 272 275 268 256 254 257 258 254 253 265 269 267 261 260 263 265 268 261 257 259 263 257 242 239 242 253 254 239 212 221 213 216 211 207 214
243 250 258 271 276 281 280 268 259 261 266 272 272 269 270 269 268 266 261 263 270 270 272 271 270 261 249 243 246 250 241 215 192 188 233 247 229 228